Location: Pine Mountain Observatory
(43.7910°N, 120.9377°W)
Time: 14:25:57
(UTC-07:00)

Explorer 11/Cluster Stage 4 - Pass Details

Date: 02 June 2019
Orbit: 467 x 1260 km, 28.8° (Epoch: 19 June)

Event Time Altitude Azimuth Distance (km) Brightness Sun altitude
Rises 21:45:21 0° 199° (SSW) 4,158 10.0 -10.1°
Reaches altitude 10° 21:51:15 10° 167° (SSE) 3,223 9.2 -10.8°
Enters shadow 21:52:45 11° 157° (SSE) 3,149 9.1 -11.0°
Maximum altitude 21:53:10 11° 154° (SSE) 3,143 - -11.1°
Drops below altitude 10° 21:55:05 10° 140° (SE) 3,200 - -11.3°
Sets 22:00:49 0° 108° (ESE) 4,066 - -12.0°
